| time (UTC) | temp C | wind direction | speed KPH | gust KPH | rain 1hr cm | rain 24hr cm | rain mn cm | humidity % | barometer mb |
| 20260508181520 | 20 | 324 | 6.4 | 12.9 | 0.00 | 0.00 | 0.00 | 68 | 1012.0 |
| 20260508181016 | 20 | 326 | 6.4 | 12.9 | 0.00 | 0.00 | 0.00 | 66 | 1011.9 |
| 20260508180512 | 20 | 0 | 4.8 | 11.3 | 0.00 | 0.00 | 0.00 | 67 | 1011.9 |
| 20260508180011 | 20 | 333 | 3.2 | 9.7 | 0.00 | 0.00 | 0.00 | 66 | 1011.9 |
| 20260508175510 | 20 | 334 | 4.8 | 12.9 | 0.00 | 0.00 | 0.00 | 67 | 1011.9 |
| 20260508175010 | 20 | 335 | 4.8 | 12.9 | 0.00 | 0.00 | 0.00 | 67 | 1011.9 |
| 20260508174511 | 20 | 322 | 4.8 | 11.3 | 0.00 | 0.00 | 0.00 | 69 | 1011.9 |
| 20260508174011 | 19 | 355 | 6.4 | 11.3 | 0.00 | 0.00 | 0.00 | 70 | 1012.1 |
| 20260508173509 | 19 | 319 | 4.8 | 11.3 | 0.00 | 0.00 | 0.00 | 68 | 1012.1 |
| 20260508173011 | 19 | 343 | 4.8 | 9.7 | 0.00 | 0.00 | 0.00 | 70 | 1012.1 |
| 20260508172507 | 19 | 326 | 4.8 | 11.3 | 0.00 | 0.00 | 0.00 | 69 | 1012.3 |
| 20260508172006 | 19 | 330 | 3.2 | 9.7 | 0.00 | 0.00 | 0.00 | 71 | 1012.3 |
| 20260508171505 | 18 | 340 | 4.8 | 12.9 | 0.00 | 0.00 | 0.00 | 73 | 1012.3 |
| 20260508171006 | 18 | 311 | 4.8 | 14.5 | 0.00 | 0.00 | 0.00 | 72 | 1012.3 |
| 20260508170000 | 18 | 325 | 3.2 | 9.7 | 0.00 | 0.00 | 0.00 | 72 | 1012.3 |
| 20260508165458 | 18 | 140 | 3.2 | 6.4 | 0.00 | 0.00 | 0.00 | 75 | 1012.3 |
| 20260508164956 | 17 | 14 | 3.2 | 8.0 | 0.00 | 0.00 | 0.00 | 76 | 1012.3 |
| 20260508164455 | 17 | 15 | 1.6 | 8.0 | 0.00 | 0.00 | 0.00 | 76 | 1012.3 |
| 20260508164003 | 17 | 15 | 1.6 | 6.4 | 0.00 | 0.00 | 0.00 | 77 | 1012.3 |
| 20260508162954 | 16 | 12 | 3.2 | 8.0 | 0.00 | 0.00 | 0.00 | 79 | 1012.3 |
| 20260508162454 | 16 | 14 | 3.2 | 6.4 | 0.00 | 0.00 | 0.00 | 80 | 1012.3 |
| 20260508161450 | 16 | 9 | 3.2 | 8.0 | 0.00 | 0.00 | 0.00 | 79 | 1012.3 |
| 20260508160948 | 16 | 11 | 1.6 | 8.0 | 0.00 | 0.00 | 0.00 | 80 | 1012.3 |
| 20260508160447 | 15 | 355 | 1.6 | 8.0 | 0.00 | 0.00 | 0.00 | 81 | 1012.3 |
| 20260508155949 | 15 | 344 | 1.6 | 6.4 | 0.00 | 0.00 | 0.00 | 82 | 1012.3 |
| 20260508154450 | 14 | 350 | 1.6 | 6.4 | 0.00 | 0.00 | 0.00 | 84 | 1012.3 |
| 20260508153440 | 13 | 350 | 1.6 | 8.0 | 0.00 | 0.00 | 0.00 | 87 | 1012.2 |
| 20260508152932 | 13 | 350 | 1.6 | 6.4 | 0.00 | 0.00 | 0.00 | 89 | 1012.2 |
| 20260508152433 | 12 | 350 | 1.6 | 6.4 | 0.00 | 0.00 | 0.00 | 89 | 1012.2 |
| 20260508151933 | 12 | 350 | 1.6 | 4.8 | 0.00 | 0.00 | 0.00 | 90 | 1012.2 |
| 20260508151429 | 12 | 350 | 3.2 | 8.0 | 0.00 | 0.00 | 0.00 | 90 | 1012.2 |
| 20260508150930 | 12 | 350 | 3.2 | 8.0 | 0.00 | 0.00 | 0.00 | 91 | 1012.2 |
| 20260508150427 | 12 | 350 | 3.2 | 8.0 | 0.00 | 0.00 | 0.00 | 91 | 1012.2 |
| 20260508145927 | 12 | 350 | 3.2 | 8.0 | 0.00 | 0.00 | 0.00 | 91 | 1012.2 |
| 20260508145423 | 12 | 350 | 3.2 | 8.0 | 0.00 | 0.00 | 0.00 | 91 | 1012.5 |
| 20260508144920 | 12 | 350 | 3.2 | 8.0 | 0.00 | 0.00 | 0.00 | 92 | 1012.5 |
| 20260508144420 | 11 | 351 | 3.2 | 8.0 | 0.00 | 0.00 | 0.00 | 92 | 1012.5 |
| 20260508143915 | 11 | 350 | 3.2 | 11.3 | 0.00 | 0.00 | 0.00 | 92 | 1012.5 |
| 20260508143414 | 11 | 355 | 3.2 | 11.3 | 0.00 | 0.00 | 0.00 | 92 | 1012.5 |
| 20260508142913 | 11 | 329 | 3.2 | 11.3 | 0.00 | 0.00 | 0.00 | 92 | 1012.5 |
| 20260508141911 | 11 | 327 | 4.8 | 11.3 | 0.00 | 0.00 | 0.00 | 92 | 1012.2 |
| 20260508141415 | 11 | 0 | 4.8 | 11.3 | 0.00 | 0.00 | 0.00 | 92 | 1012.2 |
| 20260508140412 | 11 | 327 | 3.2 | 8.0 | 0.00 | 0.00 | 0.00 | 93 | 1012.1 |
| 20260508135909 | 11 | 316 | 3.2 | 11.3 | 0.00 | 0.00 | 0.00 | 93 | 1012.1 |
| 20260508135405 | 11 | 319 | 4.8 | 11.3 | 0.00 | 0.00 | 0.00 | 93 | 1012.1 |
| 20260508134401 | 11 | 294 | 3.2 | 11.3 | 0.00 | 0.00 | 0.00 | 93 | 1012.1 |
| 20260508132854 | 11 | 279 | 3.2 | 11.3 | 0.00 | 0.00 | 0.00 | 94 | 1011.9 |
| 20260508131854 | 11 | 298 | 3.2 | 8.0 | 0.00 | 0.00 | 0.00 | 94 | 1011.9 |
| 20260508131350 | 11 | 298 | 3.2 | 8.0 | 0.00 | 0.00 | 0.00 | 94 | 1011.7 |
| 20260508130850 | 11 | 331 | 1.6 | 8.0 | 0.00 | 0.00 | 0.00 | 94 | 1011.7 |
| 20260508130348 | 11 | 332 | 3.2 | 8.0 | 0.00 | 0.00 | 0.00 | 94 | 1011.7 |
| 20260508125847 | 11 | 332 | 3.2 | 8.0 | 0.00 | 0.00 | 0.00 | 94 | 1011.6 |
| 20260508125346 | 11 | 329 | 3.2 | 8.0 | 0.00 | 0.00 | 0.00 | 94 | 1011.6 |
| 20260508124848 | 11 | 329 | 3.2 | 8.0 | 0.00 | 0.00 | 0.00 | 94 | 1011.6 |
| 20260508124347 | 11 | 329 | 3.2 | 9.7 | 0.00 | 0.00 | 0.00 | 94 | 1011.6 |
| 20260508123849 | 11 | 274 | 4.8 | 9.7 | 0.00 | 0.00 | 0.00 | 94 | 1011.6 |
| 20260508123343 | 11 | 289 | 4.8 | 9.7 | 0.00 | 0.00 | 0.00 | 94 | 1011.6 |
| 20260508122842 | 11 | 319 | 4.8 | 9.7 | 0.00 | 0.00 | 0.00 | 94 | 1011.6 |
| 20260508122340 | 11 | 321 | 3.2 | 9.7 | 0.00 | 0.00 | 0.00 | 94 | 1011.6 |
| 20260508121336 | 11 | 322 | 1.6 | 6.4 | 0.00 | 0.00 | 0.00 | 94 | 1011.5 |
| 20260508120834 | 11 | 320 | 3.2 | 6.4 | 0.00 | 0.00 | 0.00 | 94 | 1011.5 |
| 20260508115831 | 11 | 320 | 3.2 | 8.0 | 0.00 | 0.00 | 0.00 | 94 | 1011.5 |
| 20260508115323 | 11 | 321 | 1.6 | 6.4 | 0.00 | 0.00 | 0.00 | 94 | 1011.5 |
| 20260508114821 | 11 | 321 | 3.2 | 6.4 | 0.00 | 0.00 | 0.00 | 94 | 1011.5 |
| 20260508114320 | 11 | 302 | 3.2 | 6.4 | 0.00 | 0.00 | 0.00 | 94 | 1011.5 |
| 20260508113820 | 11 | 346 | 3.2 | 8.0 | 0.00 | 0.00 | 0.00 | 94 | 1011.5 |
| 20260508113316 | 11 | 346 | 3.2 | 8.0 | 0.00 | 0.00 | 0.00 | 94 | 1011.5 |
| 20260508112816 | 11 | 310 | 3.2 | 8.0 | 0.00 | 0.00 | 0.00 | 94 | 1011.3 |
| 20260508112309 | 11 | 307 | 3.2 | 8.0 | 0.00 | 0.00 | 0.00 | 94 | 1011.3 |
| 20260508111810 | 11 | 306 | 3.2 | 8.0 | 0.00 | 0.00 | 0.00 | 94 | 1011.3 |
| 20260508111305 | 11 | 305 | 3.2 | 8.0 | 0.00 | 0.00 | 0.00 | 94 | 1011.2 |
| 20260508110800 | 11 | 335 | 4.8 | 9.7 | 0.00 | 0.00 | 0.00 | 94 | 1011.2 |
| 20260508110304 | 11 | 336 | 4.8 | 11.3 | 0.00 | 0.00 | 0.00 | 94 | 1011.2 |
| 20260508105801 | 11 | 339 | 4.8 | 11.3 | 0.00 | 0.00 | 0.00 | 94 | 1011.2 |
| 20260508105258 | 11 | 332 | 4.8 | 11.3 | 0.00 | 0.00 | 0.00 | 94 | 1011.2 |
| 20260508104756 | 11 | 313 | 4.8 | 11.3 | 0.00 | 0.00 | 0.00 | 93 | 1011.2 |
| 20260508104255 | 12 | 327 | 4.8 | 9.7 | 0.00 | 0.00 | 0.00 | 93 | 1011.2 |
| 20260508103751 | 12 | 344 | 3.2 | 8.0 | 0.00 | 0.00 | 0.00 | 93 | 1011.2 |
| 20260508103246 | 12 | 338 | 1.6 | 8.0 | 0.00 | 0.00 | 0.00 | 93 | 1011.2 |
| 20260508102745 | 11 | 276 | 0.0 | 4.8 | 0.00 | 0.00 | 0.00 | 93 | 1011.3 |
| 20260508102247 | 11 | 275 | 1.6 | 6.4 | 0.00 | 0.00 | 0.00 | 93 | 1011.3 |
| 20260508101742 | 11 | 275 | 1.6 | 8.0 | 0.00 | 0.00 | 0.00 | 93 | 1011.3 |
| 20260508095232 | 12 | 300 | 1.6 | 6.4 | 0.00 | 0.00 | 0.00 | 93 | 1011.5 |
| 20260508094733 | 12 | 300 | 1.6 | 6.4 | 0.00 | 0.00 | 0.00 | 93 | 1011.5 |
| 20260508094231 | 12 | 301 | 1.6 | 6.4 | 0.00 | 0.00 | 0.00 | 93 | 1011.5 |
| 20260508093725 | 12 | 288 | 1.6 | 9.7 | 0.00 | 0.00 | 0.00 | 93 | 1011.5 |
| 20260508093227 | 12 | 288 | 3.2 | 9.7 | 0.00 | 0.00 | 0.00 | 93 | 1011.5 |
| 20260508092231 | 12 | 331 | 1.6 | 6.4 | 0.00 | 0.00 | 0.00 | 93 | 1011.5 |
| 20260508091726 | 12 | 329 | 3.2 | 8.0 | 0.00 | 0.00 | 0.00 | 93 | 1011.5 |
| 20260508091223 | 12 | 334 | 1.6 | 8.0 | 0.00 | 0.00 | 0.00 | 93 | 1011.6 |
| 20260508090721 | 12 | 321 | 0.0 | 6.4 | 0.00 | 0.00 | 0.00 | 93 | 1011.6 |
| 20260508090219 | 12 | 321 | 0.0 | 4.8 | 0.00 | 0.00 | 0.00 | 93 | 1011.6 |
| 20260508084720 | 12 | 321 | 1.6 | 4.8 | 0.00 | 0.00 | 0.00 | 93 | 1011.6 |
| 20260508084218 | 12 | 321 | 1.6 | 3.2 | 0.00 | 0.00 | 0.00 | 93 | 1011.5 |
| 20260508083718 | 12 | 321 | 1.6 | 6.4 | 0.00 | 0.00 | 0.00 | 92 | 1011.5 |
| 20260508082712 | 12 | 321 | 0.0 | 3.2 | 0.00 | 0.00 | 0.00 | 92 | 1011.6 |
| 20260508082211 | 12 | 321 | 1.6 | 4.8 | 0.00 | 0.00 | 0.00 | 92 | 1011.6 |
| 20260508081709 | 12 | 321 | 1.6 | 4.8 | 0.00 | 0.00 | 0.00 | 92 | 1011.6 |
| 20260508081210 | 12 | 321 | 1.6 | 6.4 | 0.00 | 0.00 | 0.00 | 92 | 1011.6 |
| 20260508080711 | 12 | 321 | 1.6 | 6.4 | 0.00 | 0.00 | 0.00 | 92 | 1011.6 |
| 20260508080209 | 12 | 321 | 1.6 | 4.8 | 0.00 | 0.00 | 0.00 | 92 | 1011.6 |
| 20260508075707 | 12 | 321 | 1.6 | 4.8 | 0.00 | 0.00 | 0.00 | 92 | 1011.6 |
| 20260508075210 | 12 | 321 | 1.6 | 4.8 | 0.00 | 0.00 | 0.00 | 92 | 1011.6 |
| 20260508074207 | 12 | 321 | 0.0 | 3.2 | 0.00 | 0.00 | 0.00 | 92 | 1011.6 |
| 20260508073702 | 12 | 321 | 1.6 | 6.4 | 0.00 | 0.00 | 0.00 | 92 | 1011.6 |
| 20260508072656 | 12 | 323 | 1.6 | 3.2 | 0.00 | 0.00 | 0.00 | 92 | 1011.6 |
| 20260508072157 | 12 | 323 | 1.6 | 6.4 | 0.00 | 0.00 | 0.00 | 92 | 1011.6 |
| 20260508071656 | 12 | 323 | 1.6 | 6.4 | 0.00 | 0.00 | 0.00 | 91 | 1011.6 |
| 20260508071156 | 12 | 323 | 0.0 | 3.2 | 0.00 | 0.00 | 0.00 | 92 | 1011.6 |
| 20260508070652 | 12 | 323 | 0.0 | 3.2 | 0.00 | 0.00 | 0.00 | 91 | 1011.6 |
| 20260508070156 | 12 | 323 | 0.0 | 3.2 | 0.00 | 0.00 | 0.00 | 91 | 1011.6 |
| 20260508065653 | 12 | 323 | 1.6 | 4.8 | 0.00 | 0.00 | 0.00 | 91 | 1011.6 |
| 20260508065146 | 12 | 323 | 1.6 | 4.8 | 0.00 | 0.00 | 0.00 | 91 | 1011.6 |
| 20260508064646 | 12 | 323 | 1.6 | 4.8 | 0.00 | 0.00 | 0.00 | 91 | 1011.6 |
| 20260508064140 | 12 | 323 | 1.6 | 4.8 | 0.00 | 0.00 | 0.00 | 91 | 1011.6 |
| 20260508063640 | 12 | 323 | 1.6 | 3.2 | 0.00 | 0.00 | 0.00 | 91 | 1011.6 |
| 20260508063139 | 12 | 323 | 1.6 | 6.4 | 0.00 | 0.00 | 0.00 | 91 | 1011.6 |
| 20260508062635 | 12 | 323 | 1.6 | 6.4 | 0.00 | 0.00 | 0.00 | 91 | 1011.6 |
| 20260508062142 | 12 | 331 | 1.6 | 6.4 | 0.00 | 0.00 | 0.00 | 90 | 1011.6 |
| 20260508061636 | 12 | 331 | 1.6 | 4.8 | 0.00 | 0.00 | 0.00 | 90 | 1011.6 |
| 20260508061130 | 12 | 331 | 0.0 | 4.8 | 0.00 | 0.00 | 0.00 | 90 | 1011.6 |
| 20260508060630 | 12 | 331 | 0.0 | 3.2 | 0.00 | 0.00 | 0.00 | 90 | 1011.6 |
| 20260508060127 | 12 | 331 | 0.0 | 3.2 | 0.00 | 0.00 | 0.00 | 90 | 1011.6 |
| 20260508055628 | 12 | 331 | 0.0 | 3.2 | 0.00 | 0.00 | 0.00 | 90 | 1011.6 |
| 20260508055128 | 13 | 331 | 0.0 | 3.2 | 0.00 | 0.00 | 0.00 | 89 | 1011.6 |
| 20260508054624 | 13 | 331 | 0.0 | 3.2 | 0.00 | 0.00 | 0.00 | 89 | 1011.6 |
| 20260508054124 | 13 | 331 | 0.0 | 1.6 | 0.00 | 0.00 | 0.00 | 90 | 1011.6 |
| 20260508053621 | 13 | 331 | 0.0 | 3.2 | 0.00 | 0.00 | 0.00 | 90 | 1011.6 |
| 20260508052117 | 13 | 331 | 0.0 | 4.8 | 0.00 | 0.00 | 0.00 | 89 | 1011.6 |
| 20260508051617 | 13 | 331 | 1.6 | 4.8 | 0.00 | 0.00 | 0.00 | 89 | 1011.6 |
| 20260508051114 | 13 | 331 | 1.6 | 4.8 | 0.00 | 0.00 | 0.00 | 89 | 1011.7 |
| 20260508050613 | 13 | 331 | 1.6 | 4.8 | 0.00 | 0.00 | 0.00 | 89 | 1011.7 |
| 20260508050112 | 13 | 331 | 1.6 | 4.8 | 0.00 | 0.00 | 0.00 | 89 | 1011.7 |
| 20260508045609 | 13 | 331 | 1.6 | 4.8 | 0.00 | 0.00 | 0.00 | 89 | 1011.6 |
| 20260508045109 | 13 | 331 | 0.0 | 3.2 | 0.00 | 0.00 | 0.00 | 89 | 1011.6 |
| 20260508044607 | 13 | 331 | 1.6 | 3.2 | 0.00 | 0.00 | 0.00 | 89 | 1011.6 |
| 20260508044104 | 13 | 331 | 1.6 | 3.2 | 0.00 | 0.00 | 0.00 | 89 | 1011.6 |
| 20260508043559 | 13 | 331 | 1.6 | 4.8 | 0.00 | 0.00 | 0.00 | 89 | 1011.6 |
| 20260508043105 | 13 | 331 | 1.6 | 4.8 | 0.00 | 0.00 | 0.00 | 89 | 1011.6 |
| 20260508042600 | 13 | 331 | 1.6 | 3.2 | 0.00 | 0.00 | 0.00 | 89 | 1011.5 |
| 20260508042055 | 13 | 331 | 1.6 | 4.8 | 0.00 | 0.00 | 0.00 | 89 | 1011.5 |
| 20260508041548 | 13 | 331 | 1.6 | 4.8 | 0.00 | 0.00 | 0.00 | 89 | 1011.5 |
| 20260508041044 | 13 | 331 | 1.6 | 4.8 | 0.00 | 0.00 | 0.00 | 89 | 1011.2 |
| 20260508040044 | 13 | 334 | 3.2 | 9.7 | 0.00 | 0.00 | 0.00 | 89 | 1011.2 |
| 20260508035541 | 13 | 322 | 3.2 | 9.7 | 0.00 | 0.00 | 0.00 | 89 | 1011.3 |
| 20260508035048 | 13 | 9 | 3.2 | 9.7 | 0.00 | 0.00 | 0.00 | 89 | 1011.3 |
| 20260508034537 | 13 | 279 | 3.2 | 9.7 | 0.00 | 0.00 | 0.00 | 89 | 1011.3 |
| 20260508034036 | 13 | 296 | 1.6 | 9.7 | 0.00 | 0.00 | 0.00 | 89 | 1011.1 |
| 20260508033531 | 13 | 294 | 1.6 | 11.3 | 0.00 | 0.00 | 0.00 | 89 | 1011.1 |
| 20260508032526 | 13 | 277 | 3.2 | 9.7 | 0.00 | 0.00 | 0.00 | 88 | 1011.0 |
| 20260508032025 | 13 | 321 | 4.8 | 11.3 | 0.00 | 0.00 | 0.00 | 88 | 1011.0 |
| 20260508031523 | 13 | 351 | 4.8 | 11.3 | 0.00 | 0.00 | 0.00 | 88 | 1011.0 |
| 20260508031023 | 13 | 343 | 4.8 | 14.5 | 0.00 | 0.00 | 0.00 | 88 | 1010.8 |
| 20260508030522 | 13 | 298 | 4.8 | 14.5 | 0.00 | 0.00 | 0.00 | 88 | 1010.8 |
| 20260508030020 | 13 | 281 | 6.4 | 12.9 | 0.00 | 0.00 | 0.00 | 87 | 1010.8 |
| 20260508025524 | 13 | 298 | 6.4 | 14.5 | 0.00 | 0.00 | 0.00 | 87 | 1010.7 |
| 20260508025026 | 13 | 323 | 8.0 | 14.5 | 0.00 | 0.00 | 0.00 | 87 | 1010.7 |
| 20260508024519 | 13 | 331 | 6.4 | 12.9 | 0.00 | 0.00 | 0.00 | 86 | 1010.7 |
| 20260508024014 | 13 | 344 | 6.4 | 12.9 | 0.00 | 0.00 | 0.00 | 86 | 1010.8 |
| 20260508023514 | 13 | 310 | 8.0 | 19.3 | 0.00 | 0.00 | 0.00 | 86 | 1010.8 |
| 20260508023014 | 13 | 324 | 8.0 | 19.3 | 0.00 | 0.00 | 0.00 | 85 | 1010.8 |
| 20260508022012 | 14 | 330 | 6.4 | 14.5 | 0.00 | 0.00 | 0.00 | 83 | 1010.7 |
| 20260508021008 | 15 | 348 | 6.4 | 14.5 | 0.00 | 0.00 | 0.00 | 81 | 1010.7 |
| 20260508020509 | 15 | 0 | 6.4 | 16.1 | 0.00 | 0.00 | 0.00 | 81 | 1010.7 |
| 20260508015502 | 15 | 326 | 6.4 | 16.1 | 0.00 | 0.00 | 0.00 | 80 | 1010.6 |
| 20260508015002 | 15 | 337 | 6.4 | 14.5 | 0.00 | 0.00 | 0.00 | 80 | 1010.6 |
| 20260508014500 | 16 | 345 | 6.4 | 14.5 | 0.00 | 0.00 | 0.00 | 79 | 1010.6 |
| 20260508014001 | 16 | 321 | 8.0 | 14.5 | 0.00 | 0.00 | 0.00 | 78 | 1010.6 |
| 20260508013455 | 16 | 0 | 8.0 | 16.1 | 0.00 | 0.00 | 0.00 | 78 | 1010.6 |
| 20260508012952 | 16 | 321 | 8.0 | 16.1 | 0.00 | 0.00 | 0.00 | 78 | 1010.6 |
| 20260508012452 | 16 | 309 | 9.7 | 25.7 | 0.00 | 0.00 | 0.00 | 77 | 1010.5 |
| 20260508011951 | 16 | 323 | 8.0 | 25.7 | 0.00 | 0.00 | 0.00 | 76 | 1010.5 |
| 20260508011449 | 17 | 297 | 8.0 | 17.7 | 0.00 | 0.00 | 0.00 | 75 | 1010.5 |
| 20260508010947 | 17 | 298 | 8.0 | 22.5 | 0.00 | 0.00 | 0.00 | 75 | 1010.2 |
| 20260508010451 | 17 | 311 | 8.0 | 22.5 | 0.00 | 0.00 | 0.00 | 75 | 1010.2 |
| 20260508005947 | 17 | 334 | 8.0 | 20.9 | 0.00 | 0.00 | 0.00 | 74 | 1010.2 |
| 20260508005446 | 17 | 336 | 8.0 | 16.1 | 0.00 | 0.00 | 0.00 | 74 | 1010.2 |
| 20260508004942 | 17 | 17 | 9.7 | 19.3 | 0.00 | 0.00 | 0.00 | 74 | 1010.2 |
| 20260508004444 | 17 | 0 | 9.7 | 19.3 | 0.00 | 0.00 | 0.00 | 73 | 1010.2 |
| 20260508003941 | 18 | 355 | 8.0 | 17.7 | 0.00 | 0.00 | 0.00 | 73 | 1010.2 |
| 20260508001937 | 18 | 311 | 11.3 | 22.5 | 0.00 | 0.00 | 0.00 | 73 | 1010.2 |
| 20260508001433 | 18 | 321 | 11.3 | 22.5 | 0.00 | 0.00 | 0.00 | 72 | 1010.2 |
| 20260508000930 | 18 | 340 | 11.3 | 22.5 | 0.00 | 0.00 | 0.00 | 72 | 1010.1 |
| 20260508000434 | 18 | 355 | 9.7 | 22.5 | 0.00 | 0.00 | 0.00 | 73 | 1010.1 |
| 20260507235935 | 18 | 315 | 9.7 | 24.1 | 0.00 | 0.00 | 0.00 | 72 | 1010.1 |
| 20260507235428 | 18 | 342 | 9.7 | 24.1 | 0.00 | 0.00 | 0.00 | 72 | 1010.1 |
| 20260507234925 | 18 | 277 | 8.0 | 20.9 | 0.00 | 0.00 | 0.00 | 72 | 1010.1 |
| 20260507234426 | 18 | 5 | 8.0 | 20.9 | 0.00 | 0.00 | 0.00 | 71 | 1010.1 |
| 20260507233921 | 18 | 323 | 8.0 | 20.9 | 0.00 | 0.00 | 0.00 | 71 | 1010.1 |
| 20260507233421 | 19 | 321 | 8.0 | 22.5 | 0.00 | 0.00 | 0.00 | 71 | 1010.1 |
| 20260507232918 | 18 | 11 | 8.0 | 22.5 | 0.00 | 0.00 | 0.00 | 73 | 1010.1 |
| 20260507232415 | 18 | 331 | 8.0 | 20.9 | 0.00 | 0.00 | 0.00 | 73 | 1010.2 |
| 20260507231916 | 18 | 325 | 9.7 | 22.5 | 0.00 | 0.00 | 0.00 | 75 | 1010.2 |
| 20260507231411 | 18 | 309 | 8.0 | 22.5 | 0.00 | 0.00 | 0.00 | 74 | 1010.2 |
| 20260507230911 | 18 | 325 | 9.7 | 22.5 | 0.00 | 0.00 | 0.00 | 73 | 1010.2 |
| 20260507230412 | 18 | 333 | 9.7 | 22.5 | 0.00 | 0.00 | 0.00 | 71 | 1010.2 |
| 20260507225408 | 19 | 313 | 8.0 | 17.7 | 0.00 | 0.00 | 0.00 | 72 | 1010.2 |
| 20260507224910 | 19 | 321 | 9.7 | 22.5 | 0.00 | 0.00 | 0.00 | 72 | 1010.2 |
| 20260507224406 | 19 | 338 | 9.7 | 22.5 | 0.00 | 0.00 | 0.00 | 71 | 1010.2 |
| 20260507223906 | 19 | 314 | 9.7 | 19.3 | 0.00 | 0.00 | 0.00 | 72 | 1010.2 |
| 20260507222900 | 19 | 292 | 9.7 | 19.3 | 0.00 | 0.00 | 0.00 | 72 | 1010.2 |
| 20260507222401 | 19 | 318 | 9.7 | 20.9 | 0.00 | 0.00 | 0.00 | 71 | 1010.2 |
| 20260507221356 | 20 | 317 | 9.7 | 20.9 | 0.00 | 0.00 | 0.00 | 72 | 1010.3 |
| 20260507215348 | 19 | 315 | 11.3 | 25.7 | 0.00 | 0.00 | 0.00 | 72 | 1010.7 |
| 20260507214852 | 19 | 314 | 12.9 | 22.5 | 0.00 | 0.00 | 0.00 | 73 | 1010.7 |
| 20260507214352 | 19 | 300 | 11.3 | 22.5 | 0.00 | 0.00 | 0.00 | 73 | 1010.8 |
| 20260507213846 | 19 | 309 | 11.3 | 22.5 | 0.00 | 0.00 | 0.00 | 72 | 1010.8 |
| 20260507213344 | 20 | 300 | 11.3 | 22.5 | 0.00 | 0.00 | 0.00 | 71 | 1010.8 |
| 20260507212343 | 20 | 320 | 11.3 | 24.1 | 0.00 | 0.00 | 0.00 | 72 | 1011.0 |
| 20260507211341 | 20 | 313 | 9.7 | 22.5 | 0.00 | 0.00 | 0.00 | 70 | 1011.0 |
| 20260507210841 | 20 | 337 | 9.7 | 22.5 | 0.00 | 0.00 | 0.00 | 71 | 1011.0 |
| 20260507210335 | 20 | 323 | 11.3 | 22.5 | 0.00 | 0.00 | 0.00 | 71 | 1011.0 |
| 20260507205834 | 20 | 335 | 11.3 | 22.5 | 0.00 | 0.00 | 0.00 | 71 | 1011.1 |
| 20260507205334 | 20 | 286 | 9.7 | 22.5 | 0.00 | 0.00 | 0.00 | 70 | 1011.1 |
| 20260507204831 | 20 | 311 | 9.7 | 20.9 | 0.00 | 0.00 | 0.00 | 72 | 1011.1 |
| 20260507202832 | 19 | 311 | 9.7 | 22.5 | 0.00 | 0.00 | 0.00 | 72 | 1011.2 |
| 20260507202329 | 19 | 308 | 9.7 | 22.5 | 0.00 | 0.00 | 0.00 | 72 | 1011.2 |
| 20260507201325 | 19 | 346 | 9.7 | 19.3 | 0.00 | 0.00 | 0.00 | 73 | 1011.2 |
| 20260507200326 | 19 | 315 | 9.7 | 19.3 | 0.00 | 0.00 | 0.00 | 73 | 1011.2 |
| 20260507194819 | 19 | 311 | 11.3 | 19.3 | 0.00 | 0.00 | 0.00 | 72 | 1011.2 |
| 20260507193817 | 19 | 348 | 9.7 | 19.3 | 0.00 | 0.00 | 0.00 | 71 | 1011.2 |
| 20260507193316 | 20 | 312 | 9.7 | 19.3 | 0.00 | 0.00 | 0.00 | 71 | 1011.2 |
| 20260507192819 | 20 | 300 | 8.0 | 19.3 | 0.00 | 0.00 | 0.00 | 72 | 1011.2 |
| 20260507192317 | 20 | 324 | 8.0 | 19.3 | 0.00 | 0.00 | 0.00 | 72 | 1011.2 |
| 20260507191812 | 20 | 331 | 9.7 | 19.3 | 0.00 | 0.00 | 0.00 | 72 | 1011.2 |
| 20260507191310 | 20 | 355 | 9.7 | 19.3 | 0.00 | 0.00 | 0.00 | 71 | 1011.2 |
| 20260507190808 | 20 | 328 | 8.0 | 17.7 | 0.00 | 0.00 | 0.00 | 71 | 1011.2 |
| 20260507190308 | 20 | 331 | 9.7 | 22.5 | 0.00 | 0.00 | 0.00 | 74 | 1011.2 |
| 20260507185809 | 19 | 11 | 9.7 | 22.5 | 0.00 | 0.00 | 0.00 | 72 | 1011.3 |
| 20260507185305 | 19 | 336 | 9.7 | 20.9 | 0.00 | 0.00 | 0.00 | 72 | 1011.3 |
| 20260507184804 | 20 | 11 | 9.7 | 17.7 | 0.00 | 0.00 | 0.00 | 71 | 1011.3 |
| 20260507184305 | 20 | 318 | 9.7 | 17.7 | 0.00 | 0.00 | 0.00 | 71 | 1011.3 |
| 20260507183801 | 20 | 330 | 9.7 | 16.1 | 0.00 | 0.00 | 0.00 | 72 | 1011.3 |
| 20260507183300 | 20 | 313 | 8.0 | 19.3 | 0.00 | 0.00 | 0.00 | 71 | 1011.3 |
| 20260507182758 | 21 | 326 | 8.0 | 19.3 | 0.00 | 0.00 | 0.00 | 70 | 1011.3 |
| 20260507182307 | 20 | 22 | 8.0 | 16.1 | 0.00 | 0.00 | 0.00 | 70 | 1011.3 |